Weather History for Augusta Bush, GA

Change the Weather History Date:

Tuesday, March 26, 2013

  Actual Average Record
Temperature  
Mean Temperature 42 °F 58 °F  
Max Temperature 51 °F 73 °F 89 °F (1929)
Min Temperature 32 °F 44 °F 27 °F (2006)
Degree Days  
Heating Degree Days 23 7  
Month to date heating degree days 376 262  
Since 1 July heating degree days 2180 2294  
Cooling Degree Days 0 1  
Month to date cooling degree days 1 12  
Year to date cooling degree days 16 15  
Moisture  
Dew Point 23 °F    
Average Humidity 50    
Maximum Humidity 64    
Minimum Humidity 36    
Precipitation  
Precipitation 0.00 in 0.13 in 2.60 in (1901)
Month to date precipitation 2.56 3.55  
Year to date precipitation 12.56 11.38  
Sea Level Pressure  
Sea Level Pressure 30.09 in    
Wind  
Wind Speed 12 mph (WNW)    
Max Wind Speed 22 mph    
Max Gust Speed 29 mph    
Visibility 10 miles    
Events      
T = Trace of Precipitation, MM = Missing Value Source: NWS Daily Summary

Daily Weather History Graph

Daily Weather History Graph

Search for Another Location

Airport:

Trip Planner

Search our weather history database for the weather conditions in past years. The results will help you decide how hot, cold, wet, or windy it might be!

Date:

Astronomy

Mar. 26, 2013 Rise Set
Actual Time 7:23 AM EDT 7:44 PM EDT
Civil Twilight 6:58 AM EDT 8:08 PM EDT
Nautical Twilight 6:29 AM EDT 8:38 PM EDT
Astronomical Twilight 5:59 AM EDT 9:07 PM EDT
Moon 7:18 PM EDT (3/26) 6:38 AM EDT (3/26)
Length of Visible Light 13h 10m
Length of Day
12h 20m
Waxing Gibbous, 99% of the Moon is Illuminated
Mar 26
Waxing Gibbous
Mar 27
Full
Apr 3
Last Quarter
Apr 10
New
Apr 18
First Quarter

Hourly Weather History & Observations

Time (EDT) Temp. Windchill Dew Point Humidity Pressure Visibility Wind Dir Wind Speed Gust Speed Precip Events Conditions
12:53 AM 37.9 °F 30.5 °F 21.9 °F 53% 30.04 in 10.0 mi West 11.5 mph - N/A   Clear
1:53 AM 37.0 °F 28.9 °F 21.9 °F 54% 30.04 in 10.0 mi West 12.7 mph - N/A   Clear
2:53 AM 37.0 °F 28.9 °F 21.9 °F 54% 30.03 in 10.0 mi WNW 12.7 mph 23.0 mph N/A   Clear
3:53 AM 36.0 °F 27.5 °F 21.9 °F 57% 30.03 in 10.0 mi WNW 12.7 mph - N/A   Clear
4:53 AM 35.1 °F 26.4 °F 21.9 °F 59% 30.02 in 10.0 mi West 12.7 mph 18.4 mph N/A   Clear
5:53 AM 33.1 °F 26.1 °F 21.9 °F 64% 30.01 in 10.0 mi WNW 8.1 mph - N/A   Clear
6:53 AM 32.0 °F 27.5 °F 21.9 °F 66% 30.03 in 10.0 mi West 4.6 mph - N/A   Clear
7:53 AM 33.1 °F - 23.0 °F 66% 30.05 in 10.0 mi Calm Calm - N/A   Clear
8:53 AM 36.0 °F 29.6 °F 24.1 °F 62% 30.07 in 10.0 mi West 8.1 mph - N/A   Clear
9:53 AM 41.0 °F 32.8 °F 25.0 °F 53% 30.08 in 10.0 mi WNW 16.1 mph 20.7 mph N/A   Clear
10:53 AM 45.0 °F 37.4 °F 23.0 °F 42% 30.08 in 10.0 mi NW 18.4 mph 24.2 mph N/A   Clear
11:53 AM 46.0 °F 41.4 °F 23.0 °F 40% 30.09 in 10.0 mi WNW 9.2 mph 23.0 mph N/A   Partly Cloudy
12:53 PM 46.0 °F 41.4 °F 21.9 °F 39% 30.09 in 10.0 mi WNW 9.2 mph - N/A   Overcast
1:53 PM 46.0 °F 40.6 °F 21.9 °F 39% 30.09 in 10.0 mi NW 11.5 mph - N/A   Overcast
2:53 PM 48.9 °F - 23.0 °F 36% 30.09 in 10.0 mi WNW 15.0 mph 23.0 mph N/A   Overcast
3:53 PM 48.0 °F - 24.1 °F 39% 30.09 in 10.0 mi NW 15.0 mph - N/A   Overcast
4:53 PM 48.9 °F - 23.0 °F 36% 30.10 in 10.0 mi NW 16.1 mph 23.0 mph N/A   Overcast
5:53 PM 48.9 °F - 24.1 °F 38% 30.11 in 10.0 mi West 13.8 mph 28.8 mph N/A   Mostly Cloudy
6:53 PM 48.0 °F - 24.1 °F 39% 30.14 in 10.0 mi WNW 16.1 mph 24.2 mph N/A   Clear
7:53 PM 45.0 °F 39.7 °F 24.1 °F 44% 30.16 in 10.0 mi West 10.4 mph - N/A   Clear
8:53 PM 43.0 °F 36.4 °F 25.0 °F 49% 30.18 in 10.0 mi WNW 12.7 mph - N/A   Clear
9:53 PM 42.1 °F 35.2 °F 25.0 °F 51% 30.21 in 10.0 mi West 12.7 mph - N/A   Clear
10:53 PM 39.9 °F 33.4 °F 25.0 °F 55% 30.23 in 10.0 mi WNW 10.4 mph - N/A   Clear
11:53 PM 39.0 °F 32.8 °F 24.1 °F 55% 30.24 in 10.0 mi NW 9.2 mph - N/A   Clear